Погода в Малышеве

Россия / Владимирская область     55°43′27″N   41°32′13″E
темп.,
°C
ветер,
м/с
пор.,
м/с
влажн.,
%
обл.,
%
осадки,
мм/ч
давл.,
гПа
погр.,
м
5 августа, чт
чт500:00+14зсз226510 0.0 101740
03:00+14с236212 0.0 101756
06:00+14вюв126751 0.0 101849
09:00+20юв22476 0.0 1018462
12:00+25ююв223417 0.0 10172298
15:00+23ю124262 0.0 1016778
18:00+20сз1152100 0.0 101621
21:00+19с125297 0.0 101631
6 августа, пт
пт600:00+18в1156100 0.0 101528
03:00+18юв3106289 0.0 1014282
06:00+16ю41083100 0.6 1015318
09:00+16юв2491100 1.9 1015125
12:00+15вюв2594100 2.7 1015223
15:00+15в2495100 3.4 1015126
18:00+16в399384 0.1 1013218
21:00+15всв41293100 0.1 1013334
7 августа, сб
сб700:00+15всв4992100 0.0 1012221
03:00+15всв249797 0.9 1012106
06:00+16в369498 1.4 1012151
09:00+21ююв377466 2.0 1012388
12:00+21ююв2369100 0.4 1013107
15:00+30ююв25315 0.4 10121756
18:00+25юв495081 0.0 1012314
21:00+21юв41459100 0.0 1012287
8 августа, вс
вс800:00+22ююв3145595 0.0 1012338
03:00+21ююв4135164 0.0 1013348
06:00+19ю2960100 0.0 1013209
09:00+25ююв4842100 0.0 1012331
12:00+29ююз4633100 0.1 10121012
15:00+23зюз2360100 0.1 101386
18:00+23зсз246499 0.0 1013261
21:00+18зсз23940 0.3 101463
9 августа, пн
пн900:00+17з25950 0.0 101593
03:00+15зсз2491100 0.0 101573
06:00+15з25885 0.0 1016129
09:00+21сз356498 0.0 1016580
12:00+25зсз354514 0.0 10151618
15:00+26зсз35406 0.0 10142127
18:00+24с36525 0.0 1014625
21:00+18сз11680 0.0 101511